TimeEDT,TemperatureF,Dew PointF,Humidity,Sea Level PressureIn,VisibilityMPH,Wind Direction,Wind SpeedMPH,Gust SpeedMPH,PrecipitationIn,Events,Conditions,WindDirDegrees,DateUTC
12:53 AM,34.0,26.1,73,30.32,10.0,Calm,Calm,-,N/A,,Clear,0,2013-03-29 04:53:00
1:53 AM,33.1,25.0,72,30.32,10.0,Calm,Calm,-,N/A,,Clear,0,2013-03-29 05:53:00
2:53 AM,32.0,25.0,75,30.32,9.0,Calm,Calm,-,N/A,,Clear,0,2013-03-29 06:53:00
3:53 AM,30.9,25.0,79,30.31,10.0,Calm,Calm,-,N/A,,Clear,0,2013-03-29 07:53:00
4:53 AM,30.9,27.0,85,30.30,7.0,Calm,Calm,-,N/A,,Overcast,0,2013-03-29 08:53:00
5:53 AM,30.0,24.1,79,30.29,7.0,SSW,3.5,-,N/A,,Clear,200,2013-03-29 09:53:00
6:53 AM,30.9,25.0,79,30.30,8.0,Calm,Calm,-,N/A,,Partly Cloudy,0,2013-03-29 10:53:00
7:53 AM,30.0,25.0,82,30.30,5.0,Calm,Calm,-,N/A,,Haze,0,2013-03-29 11:53:00
8:53 AM,-9999,-9999,N/A,30.30,-9999.0,North,-9999.0,-,N/A,,Unknown,0,2013-03-29 12:53:00
9:53 AM,-9999,-9999,N/A,30.31,-9999.0,North,-9999.0,-,N/A,,Unknown,0,2013-03-29 13:53:00
10:53 AM,44.1,28.0,53,30.32,10.0,SW,3.5,-,N/A,,Unknown,230,2013-03-29 14:53:00
11:53 AM,46.9,28.9,50,30.32,10.0,Variable,4.6,-,N/A,,Clear,0,2013-03-29 15:53:00
12:53 PM,48.9,32.0,52,30.30,10.0,West,6.9,-,N/A,,Clear,260,2013-03-29 16:53:00
1:53 PM,51.1,33.1,50,30.28,10.0,NNW,8.1,-,N/A,,Partly Cloudy,330,2013-03-29 17:53:00
2:53 PM,52.0,34.0,50,30.26,10.0,Variable,5.8,-,N/A,,Clear,0,2013-03-29 18:53:00
3:53 PM,53.1,33.1,47,30.24,10.0,NW,6.9,-,N/A,,Scattered Clouds,320,2013-03-29 19:53:00
4:53 PM,53.1,35.1,50,30.23,10.0,NNW,11.5,-,N/A,,Mostly Cloudy,340,2013-03-29 20:53:00
5:53 PM,53.1,33.1,47,30.22,10.0,NNW,4.6,-,N/A,,Partly Cloudy,330,2013-03-29 21:53:00
6:53 PM,51.1,33.1,50,30.23,10.0,NNW,10.4,-,N/A,,Clear,340,2013-03-29 22:53:00
7:53 PM,48.0,33.1,56,30.23,10.0,NW,5.8,-,N/A,,Clear,320,2013-03-29 23:53:00
8:53 PM,46.9,28.9,50,30.23,10.0,NW,3.5,-,N/A,,Clear,310,2013-03-30 00:53:00
9:53 PM,42.1,28.9,60,30.24,10.0,Calm,Calm,-,N/A,,Clear,0,2013-03-30 01:53:00
10:53 PM,39.0,28.9,67,30.25,9.0,Calm,Calm,-,N/A,,Clear,0,2013-03-30 02:53:00
11:53 PM,37.9,28.9,70,30.25,10.0,Calm,Calm,-,N/A,,Clear,0,2013-03-30 03:53:00